Погода в Кенже

Россия / Кабардино-Балкарская Республика     43°29′48″N   43°33′11″E
темп.,
°C
ветер,
м/с
пор.,
м/с
влажн.,
%
обл.,
%
осадки,
мм/ч
давл.,
гПа
погр.,
м
14 мая, пт
пт1400:00+13юз326060 0.0 101427
03:00+13юз324683 0.0 101425
06:00+15юз32500 0.0 101429
09:00+21в21450 0.0 1013285
12:00+25всв32461 0.0 1013661
15:00+25всв33521 0.0 1012809
18:00+22всв22730 0.1 101278
21:00+17юз32833 0.1 101431
15 мая, сб
сб1500:00+16юз44502 0.0 101242
03:00+16зюз32475 0.0 101332
06:00+16зюз325338 0.0 101436
09:00+24св224011 0.0 1013543
12:00+26св33460 0.0 10131283
15:00+25св3351100 0.5 10121637
18:00+17юз5775100 3.3 1014157
21:00+16юз446877 3.8 101445
16 мая, вс
вс1600:00+16юз3262100 0.0 101233
03:00+16юз3262100 0.0 101129
06:00+16юз22676 0.0 101130
09:00+22всв22565 0.0 1010583
12:00+24всв435419 0.0 10091036
15:00+25всв33545 0.0 10071275
18:00+22всв23732 0.0 1007284
21:00+17зюз2284100 0.1 100826
17 мая, пн
пн1700:00+17юз3260100 0.0 100631
03:00+17юз3251100 0.0 100629
06:00+17юз22585 0.0 100625
09:00+23всв21460 0.0 1005385
12:00+25всв32485 0.0 1006710
15:00+25св324999 0.0 1005830
18:00+21сз4775100 0.4 1008440
21:00+17зюз3283100 1.6 101036
18 мая, вт
вт1800:00+15зюз3391100 2.1 101043
03:00+14зюз328798 2.3 100936
06:00+15юз229099 2.1 101157
09:00+17ссв128099 3.4 1012711
12:00+14с249399 4.5 1014320
15:00+17ссз2574100 6.4 1014916
18:00+15ююз2489100 1.8 1015112
21:00+13зюз228738 1.9 101622